Time,TemperatureF,DewpointF,PressureIn,WindDirection,WindDirectionDegrees,WindSpeedMPH,WindSpeedGustMPH,Humidity,HourlyPrecipIn,Conditions,Clouds,dailyrainin,SoftwareType,DateUTC
2013-06-16 00:01:00,56.9,51.8,29.75,NW,322,0.0,0.0,83,0.00,,,0.00,WeatherCatV1.11B39,2013-06-16 04:01:00,
2013-06-16 00:06:00,57.2,52.1,29.75,NW,320,0.0,1.0,83,0.00,,,0.00,WeatherCatV1.11B39,2013-06-16 04:06:00,
2013-06-16 00:11:00,57.6,52.1,29.76,NW,319,0.0,0.0,82,0.00,,,0.00,WeatherCatV1.11B39,2013-06-16 04:11:00,
2013-06-16 00:16:00,58.3,52.2,29.76,NW,319,0.0,0.0,80,0.00,,,0.00,WeatherCatV1.11B39,2013-06-16 04:16:00,
2013-06-16 00:21:00,58.7,51.9,29.76,NW,319,0.0,0.0,78,0.00,,,0.00,WeatherCatV1.11B39,2013-06-16 04:21:00,
2013-06-16 00:26:00,59.2,51.3,29.76,NW,319,0.0,0.0,75,0.00,,,0.00,WeatherCatV1.11B39,2013-06-16 04:26:00,
2013-06-16 00:31:00,59.8,51.1,29.76,WNW,301,2.0,3.0,73,0.00,,,0.00,WeatherCatV1.11B39,2013-06-16 04:31:00,
2013-06-16 00:36:00,59.9,51.6,29.75,WNW,300,2.0,5.0,74,0.00,,,0.00,WeatherCatV1.11B39,2013-06-16 04:36:00,
2013-06-16 00:41:00,60.1,51.0,29.76,WNW,299,3.0,5.0,72,0.00,,,0.00,WeatherCatV1.11B39,2013-06-16 04:41:00,
2013-06-16 00:46:00,59.9,50.8,29.76,WNW,299,2.0,4.0,72,0.00,,,0.00,WeatherCatV1.11B39,2013-06-16 04:46:00,
2013-06-16 00:51:00,59.8,50.4,29.75,WNW,294,2.0,4.0,71,0.00,,,0.00,WeatherCatV1.11B39,2013-06-16 04:51:00,
2013-06-16 00:56:00,59.6,50.2,29.75,WNW,294,1.0,4.0,71,0.00,,,0.00,WeatherCatV1.11B39,2013-06-16 04:56:00,
2013-06-16 01:01:00,59.8,50.0,29.74,WNW,293,0.0,4.0,70,0.00,,,0.00,WeatherCatV1.11B39,2013-06-16 05:01:00,
2013-06-16 01:06:00,59.8,49.6,29.74,WNW,293,0.0,4.0,69,0.00,,,0.00,WeatherCatV1.11B39,2013-06-16 05:06:00,
2013-06-16 01:11:00,60.1,49.1,29.75,WNW,294,1.0,3.0,67,0.00,,,0.00,WeatherCatV1.11B39,2013-06-16 05:11:00,
2013-06-16 01:16:00,60.1,49.5,29.74,WNW,293,0.0,2.0,68,0.00,,,0.00,WeatherCatV1.11B39,2013-06-16 05:16:00,
2013-06-16 01:21:00,59.9,49.3,29.75,WNW,294,0.0,0.0,68,0.00,,,0.00,WeatherCatV1.11B39,2013-06-16 05:21:00,
2013-06-16 01:26:00,59.8,49.2,29.74,WNW,294,0.0,0.0,68,0.00,,,0.00,WeatherCatV1.11B39,2013-06-16 05:26:00,
2013-06-16 01:31:00,59.6,49.0,29.74,WNW,294,0.0,2.0,68,0.00,,,0.00,WeatherCatV1.11B39,2013-06-16 05:31:00,
2013-06-16 01:36:00,59.5,48.9,29.74,WNW,295,0.0,0.0,68,0.00,,,0.00,WeatherCatV1.11B39,2013-06-16 05:36:00,
2013-06-16 01:41:00,59.5,48.9,29.74,WNW,295,0.0,3.0,68,0.00,,,0.00,WeatherCatV1.11B39,2013-06-16 05:41:00,
2013-06-16 01:46:00,59.6,49.0,29.74,WNW,295,0.0,1.0,68,0.00,,,0.00,WeatherCatV1.11B39,2013-06-16 05:46:00,
2013-06-16 01:51:00,59.5,48.9,29.74,WNW,295,0.0,0.0,68,0.00,,,0.00,WeatherCatV1.11B39,2013-06-16 05:51:00,
2013-06-16 01:52:00,59.5,48.9,29.74,WNW,295,1.0,2.0,68,0.00,,,0.00,WeatherCatV1.11B39,2013-06-16 05:52:00,
2013-06-16 01:57:00,59.5,48.9,29.74,WNW,295,0.0,2.0,68,0.00,,,0.00,WeatherCatV1.11B39,2013-06-16 05:57:00,
2013-06-16 02:02:00,59.3,48.7,29.74,WNW,294,2.0,2.0,68,0.00,,,0.00,WeatherCatV1.11B39,2013-06-16 06:02:00,
2013-06-16 02:07:00,59.3,48.7,29.75,WNW,291,0.0,3.0,68,0.00,,,0.00,WeatherCatV1.11B39,2013-06-16 06:07:00,
2013-06-16 02:12:00,59.3,48.7,29.74,WNW,294,1.0,2.0,68,0.00,,,0.00,WeatherCatV1.11B39,2013-06-16 06:12:00,
2013-06-16 02:17:00,59.5,48.9,29.75,WNW,292,0.0,3.0,68,0.00,,,0.00,WeatherCatV1.11B39,2013-06-16 06:17:00,
2013-06-16 02:22:00,59.5,48.5,29.75,WNW,292,0.0,4.0,67,0.00,,,0.00,WeatherCatV1.11B39,2013-06-16 06:22:00,
2013-06-16 02:27:00,59.5,48.5,29.75,WNW,292,2.0,2.0,67,0.00,,,0.00,WeatherCatV1.11B39,2013-06-16 06:27:00,
2013-06-16 02:32:00,59.5,48.5,29.75,WNW,292,0.0,2.0,67,0.00,,,0.00,WeatherCatV1.11B39,2013-06-16 06:32:00,
2013-06-16 02:37:00,59.5,48.5,29.74,WNW,292,0.0,0.0,67,0.00,,,0.00,WeatherCatV1.11B39,2013-06-16 06:37:00,
2013-06-16 02:42:00,59.5,48.5,29.74,WNW,292,0.0,1.0,67,0.00,,,0.00,WeatherCatV1.11B39,2013-06-16 06:42:00,
2013-06-16 02:47:00,59.5,48.5,29.74,WNW,292,0.0,0.0,67,0.00,,,0.00,WeatherCatV1.11B39,2013-06-16 06:47:00,
2013-06-16 02:52:00,59.5,48.5,29.74,WNW,293,0.0,3.0,67,0.00,,,0.00,WeatherCatV1.11B39,2013-06-16 06:52:00,
2013-06-16 02:57:00,59.5,48.5,29.74,WNW,293,2.0,3.0,67,0.00,,,0.00,WeatherCatV1.11B39,2013-06-16 06:57:00,
2013-06-16 03:02:00,59.5,48.5,29.75,WNW,293,0.0,3.0,67,0.00,,,0.00,WeatherCatV1.11B39,2013-06-16 07:02:00,
2013-06-16 03:07:00,59.5,48.5,29.75,WNW,293,0.0,0.0,67,0.00,,,0.00,WeatherCatV1.11B39,2013-06-16 07:07:00,
2013-06-16 03:12:00,59.5,48.1,29.75,WNW,294,0.0,0.0,66,0.00,,,0.00,WeatherCatV1.11B39,2013-06-16 07:12:00,
2013-06-16 03:17:00,59.5,48.1,29.75,WNW,295,1.0,4.0,66,0.00,,,0.00,WeatherCatV1.11B39,2013-06-16 07:17:00,
2013-06-16 03:22:00,59.6,47.8,29.75,WNW,292,0.0,3.0,65,0.00,,,0.00,WeatherCatV1.11B39,2013-06-16 07:22:00,
2013-06-16 03:27:00,59.8,47.6,29.74,WNW,292,0.0,0.0,64,0.00,,,0.00,WeatherCatV1.11B39,2013-06-16 07:27:00,
2013-06-16 03:32:00,59.6,47.8,29.74,WNW,292,0.0,0.0,65,0.00,,,0.00,WeatherCatV1.11B39,2013-06-16 07:32:00,
2013-06-16 03:37:00,59.5,47.7,29.74,WNW,292,0.0,0.0,65,0.00,,,0.00,WeatherCatV1.11B39,2013-06-16 07:37:00,
2013-06-16 03:42:00,59.5,47.7,29.74,WNW,292,0.0,0.0,65,0.00,,,0.00,WeatherCatV1.11B39,2013-06-16 07:42:00,
2013-06-16 03:47:00,59.3,47.5,29.73,WNW,292,0.0,0.0,65,0.00,,,0.00,WeatherCatV1.11B39,2013-06-16 07:47:00,
2013-06-16 03:52:00,59.3,47.5,29.73,WNW,292,0.0,1.0,65,0.00,,,0.00,WeatherCatV1.11B39,2013-06-16 07:52:00,
2013-06-16 03:57:00,59.2,47.4,29.74,WNW,292,0.0,0.0,65,0.00,,,0.00,WeatherCatV1.11B39,2013-06-16 07:57:00,
2013-06-16 04:02:00,59.2,47.4,29.73,WNW,294,0.0,0.0,65,0.00,,,0.00,WeatherCatV1.11B39,2013-06-16 08:02:00,
2013-06-16 04:07:00,59.3,47.5,29.73,NW,304,1.0,3.0,65,0.00,,,0.00,WeatherCatV1.11B39,2013-06-16 08:07:00,
2013-06-16 04:12:00,59.3,47.5,29.73,NW,311,0.0,3.0,65,0.00,,,0.00,WeatherCatV1.11B39,2013-06-16 08:12:00,
2013-06-16 04:17:00,59.2,47.4,29.73,WNW,294,0.0,0.0,65,0.00,,,0.00,WeatherCatV1.11B39,2013-06-16 08:17:00,
2013-06-16 04:22:00,59.2,47.4,29.73,WNW,294,0.0,1.0,65,0.00,,,0.00,WeatherCatV1.11B39,2013-06-16 08:22:00,
2013-06-16 04:27:00,59.2,47.4,29.74,WNW,293,3.0,5.0,65,0.00,,,0.00,WeatherCatV1.11B39,2013-06-16 08:27:00,
2013-06-16 04:32:00,59.3,47.5,29.73,WNW,301,0.0,4.0,65,0.00,,,0.00,WeatherCatV1.11B39,2013-06-16 08:32:00,
2013-06-16 04:37:00,59.5,47.7,29.73,WNW,292,0.0,3.0,65,0.00,,,0.00,WeatherCatV1.11B39,2013-06-16 08:37:00,
2013-06-16 04:42:00,59.5,47.7,29.73,WNW,291,0.0,0.0,65,0.00,,,0.00,WeatherCatV1.11B39,2013-06-16 08:42:00,
2013-06-16 04:47:00,59.5,47.3,29.73,WNW,292,0.0,0.0,64,0.00,,,0.00,WeatherCatV1.11B39,2013-06-16 08:47:00,
2013-06-16 04:52:00,59.6,47.0,29.73,WNW,294,0.0,3.0,63,0.00,,,0.00,WeatherCatV1.11B39,2013-06-16 08:52:00,
2013-06-16 04:57:00,59.6,47.0,29.73,WNW,295,0.0,1.0,63,0.00,,,0.00,WeatherCatV1.11B39,2013-06-16 08:57:00,
2013-06-16 05:02:00,59.6,47.4,29.74,WNW,294,0.0,0.0,64,0.00,,,0.00,WeatherCatV1.11B39,2013-06-16 09:02:00,
2013-06-16 05:07:00,59.6,47.0,29.73,WNW,295,0.0,3.0,63,0.00,,,0.00,WeatherCatV1.11B39,2013-06-16 09:07:00,
2013-06-16 05:12:00,59.6,46.6,29.73,WNW,295,0.0,0.0,62,0.00,,,0.00,WeatherCatV1.11B39,2013-06-16 09:12:00,
2013-06-16 05:17:00,59.6,46.6,29.73,WNW,294,0.0,0.0,62,0.00,,,0.00,WeatherCatV1.11B39,2013-06-16 09:17:00,
2013-06-16 05:22:00,59.6,46.6,29.74,WNW,294,0.0,0.0,62,0.00,,,0.00,WeatherCatV1.11B39,2013-06-16 09:22:00,
2013-06-16 05:27:00,59.6,47.0,29.74,WNW,294,0.0,0.0,63,0.00,,,0.00,WeatherCatV1.11B39,2013-06-16 09:27:00,
2013-06-16 05:32:00,59.8,47.2,29.74,WNW,294,2.0,2.0,63,0.00,,,0.00,WeatherCatV1.11B39,2013-06-16 09:32:00,
2013-06-16 05:37:00,59.9,46.8,29.75,WNW,295,3.0,5.0,62,0.00,,,0.00,WeatherCatV1.11B39,2013-06-16 09:37:00,
2013-06-16 05:42:00,60.2,46.7,29.74,WNW,293,0.0,3.0,61,0.00,,,0.00,WeatherCatV1.11B39,2013-06-16 09:42:00,
2013-06-16 05:47:00,60.2,47.1,29.74,WNW,293,0.0,0.0,62,0.00,,,0.00,WeatherCatV1.11B39,2013-06-16 09:47:00,
2013-06-16 05:52:00,60.4,46.9,29.75,WNW,293,0.0,0.0,61,0.00,,,0.00,WeatherCatV1.11B39,2013-06-16 09:52:00,
2013-06-16 05:53:00,60.4,46.9,29.74,WNW,294,0.0,0.0,61,0.00,,,0.00,WeatherCatV1.11B39,2013-06-16 09:53:00,
2013-06-16 05:58:00,60.5,47.0,29.74,WNW,291,2.0,5.0,61,0.00,,,0.00,WeatherCatV1.11B39,2013-06-16 09:58:00,
2013-06-16 06:03:00,60.6,46.6,29.74,WNW,291,0.0,1.0,60,0.00,,,0.00,WeatherCatV1.11B39,2013-06-16 10:03:00,
2013-06-16 06:08:00,60.6,46.6,29.75,WNW,291,0.0,0.0,60,0.00,,,0.00,WeatherCatV1.11B39,2013-06-16 10:08:00,
2013-06-16 06:13:00,60.4,46.9,29.74,WNW,292,0.0,0.0,61,0.00,,,0.00,WeatherCatV1.11B39,2013-06-16 10:13:00,
2013-06-16 06:18:00,60.4,46.4,29.74,WNW,291,0.0,0.0,60,0.00,,,0.00,WeatherCatV1.11B39,2013-06-16 10:18:00,
2013-06-16 06:23:00,60.4,46.4,29.74,WNW,292,2.0,4.0,60,0.00,,,0.00,WeatherCatV1.11B39,2013-06-16 10:23:00,
2013-06-16 06:28:00,60.4,46.9,29.75,WNW,291,0.0,0.0,61,0.00,,,0.00,WeatherCatV1.11B39,2013-06-16 10:28:00,
2013-06-16 06:33:00,60.4,46.9,29.75,WNW,291,0.0,0.0,61,0.00,,,0.00,WeatherCatV1.11B39,2013-06-16 10:33:00,
2013-06-16 06:38:00,60.6,46.6,29.75,West,277,3.0,5.0,60,0.00,,,0.00,WeatherCatV1.11B39,2013-06-16 10:38:00,
2013-06-16 06:43:00,60.9,46.5,29.74,WNW,293,3.0,4.0,59,0.00,,,0.00,WeatherCatV1.11B39,2013-06-16 10:43:00,
2013-06-16 06:48:00,61.0,46.6,29.74,WNW,293,0.0,4.0,59,0.00,,,0.00,WeatherCatV1.11B39,2013-06-16 10:48:00,
2013-06-16 06:53:00,61.0,46.6,29.74,WNW,293,0.0,0.0,59,0.00,,,0.00,WeatherCatV1.11B39,2013-06-16 10:53:00,
2013-06-16 06:58:00,61.1,46.7,29.75,WNW,293,0.0,0.0,59,0.00,,,0.00,WeatherCatV1.11B39,2013-06-16 10:58:00,
2013-06-16 07:03:00,61.0,46.6,29.75,WNW,293,0.0,0.0,59,0.00,,,0.00,WeatherCatV1.11B39,2013-06-16 11:03:00,
2013-06-16 07:08:00,61.4,47.4,29.74,WNW,293,0.0,0.0,60,0.00,,,0.00,WeatherCatV1.11B39,2013-06-16 11:08:00,
2013-06-16 07:13:00,61.5,47.5,29.74,WNW,293,0.0,1.0,60,0.00,,,0.00,WeatherCatV1.11B39,2013-06-16 11:13:00,
2013-06-16 07:18:00,61.8,47.3,29.74,WNW,301,5.0,6.0,59,0.00,,,0.00,WeatherCatV1.11B39,2013-06-16 11:18:00,
2013-06-16 07:23:00,62.1,46.7,29.75,WNW,288,2.0,5.0,57,0.00,,,0.00,WeatherCatV1.11B39,2013-06-16 11:23:00,
2013-06-16 07:28:00,62.3,46.9,29.75,WNW,292,2.0,4.0,57,0.00,,,0.00,WeatherCatV1.11B39,2013-06-16 11:28:00,
2013-06-16 07:33:00,62.3,47.3,29.75,WNW,292,2.0,3.0,58,0.00,,,0.00,WeatherCatV1.11B39,2013-06-16 11:33:00,
2013-06-16 07:38:00,62.1,47.1,29.75,WNW,289,1.0,5.0,58,0.00,,,0.00,WeatherCatV1.11B39,2013-06-16 11:38:00,
2013-06-16 07:43:00,62.1,47.6,29.75,WNW,289,2.0,4.0,59,0.00,,,0.00,WeatherCatV1.11B39,2013-06-16 11:43:00,
2013-06-16 07:48:00,62.1,47.6,29.75,WNW,289,0.0,0.0,59,0.00,,,0.00,WeatherCatV1.11B39,2013-06-16 11:48:00,
2013-06-16 07:53:00,62.1,48.0,29.75,WNW,289,0.0,0.0,60,0.00,,,0.00,WeatherCatV1.11B39,2013-06-16 11:53:00,
2013-06-16 07:58:00,62.3,48.7,29.75,WNW,289,0.0,0.0,61,0.00,,,0.00,WeatherCatV1.11B39,2013-06-16 11:58:00,
2013-06-16 08:03:00,62.4,48.3,29.75,WNW,290,0.0,0.0,60,0.00,,,0.00,WeatherCatV1.11B39,2013-06-16 12:03:00,
2013-06-16 08:08:00,62.6,49.0,29.75,WNW,282,4.0,5.0,61,0.00,,,0.00,WeatherCatV1.11B39,2013-06-16 12:08:00,
2013-06-16 08:13:00,62.9,48.3,29.75,West,262,0.0,3.0,59,0.00,,,0.00,WeatherCatV1.11B39,2013-06-16 12:13:00,
2013-06-16 08:18:00,63.2,49.5,29.75,West,262,0.0,0.0,61,0.00,,,0.00,WeatherCatV1.11B39,2013-06-16 12:18:00,
2013-06-16 08:23:00,63.5,48.9,29.74,West,263,0.0,0.0,59,0.00,,,0.00,WeatherCatV1.11B39,2013-06-16 12:23:00,
2013-06-16 08:28:00,63.9,49.7,29.75,West,263,0.0,0.0,60,0.00,,,0.00,WeatherCatV1.11B39,2013-06-16 12:28:00,
2013-06-16 08:33:00,64.1,49.0,29.74,West,263,0.0,0.0,58,0.00,,,0.00,WeatherCatV1.11B39,2013-06-16 12:33:00,
2013-06-16 08:38:00,64.5,49.4,29.74,West,263,0.0,1.0,58,0.00,,,0.00,WeatherCatV1.11B39,2013-06-16 12:38:00,
2013-06-16 08:43:00,65.1,49.9,29.74,West,269,2.0,5.0,58,0.00,,,0.00,WeatherCatV1.11B39,2013-06-16 12:43:00,
2013-06-16 08:48:00,65.8,49.2,29.74,WNW,290,6.0,6.0,55,0.00,,,0.00,WeatherCatV1.11B39,2013-06-16 12:48:00,
2013-06-16 08:53:00,66.3,48.1,29.74,NW,323,5.0,10.0,52,0.00,,,0.00,WeatherCatV1.11B39,2013-06-16 12:53:00,
2013-06-16 08:58:00,66.9,48.7,29.73,NNW,340,5.0,7.0,52,0.00,,,0.00,WeatherCatV1.11B39,2013-06-16 12:58:00,
2013-06-16 09:03:00,67.4,48.1,29.74,NW,308,5.0,6.0,50,0.00,,,0.00,WeatherCatV1.11B39,2013-06-16 13:03:00,
2013-06-16 09:08:00,67.8,47.9,29.74,WNW,292,4.0,6.0,49,0.00,,,0.00,WeatherCatV1.11B39,2013-06-16 13:08:00,
2013-06-16 09:13:00,67.9,48.6,29.73,NW,310,2.0,6.0,50,0.00,,,0.00,WeatherCatV1.11B39,2013-06-16 13:13:00,
2013-06-16 09:18:00,68.3,48.4,29.73,WNW,292,4.0,4.0,49,0.00,,,0.00,WeatherCatV1.11B39,2013-06-16 13:18:00,
2013-06-16 09:23:00,68.5,49.1,29.73,WNW,297,3.0,6.0,50,0.00,,,0.00,WeatherCatV1.11B39,2013-06-16 13:23:00,
2013-06-16 09:28:00,68.7,50.4,29.73,WSW,257,6.0,8.0,52,0.00,,,0.00,WeatherCatV1.11B39,2013-06-16 13:28:00,
2013-06-16 09:33:00,68.6,49.2,29.73,NW,326,8.0,11.0,50,0.00,,,0.00,WeatherCatV1.11B39,2013-06-16 13:33:00,
2013-06-16 09:38:00,68.7,49.3,29.72,WNW,300,3.0,8.0,50,0.00,,,0.00,WeatherCatV1.11B39,2013-06-16 13:38:00,
2013-06-16 09:43:00,69.1,49.7,29.72,SW,226,4.0,7.0,50,0.00,,,0.00,WeatherCatV1.11B39,2013-06-16 13:43:00,
2013-06-16 09:48:00,69.4,49.9,29.72,NW,317,5.0,11.0,50,0.00,,,0.00,WeatherCatV1.11B39,2013-06-16 13:48:00,
2013-06-16 09:53:00,69.6,51.2,29.72,West,267,3.0,7.0,52,0.00,,,0.00,WeatherCatV1.11B39,2013-06-16 13:53:00,
2013-06-16 09:58:00,69.9,49.9,29.73,West,267,9.0,10.0,49,0.00,,,0.00,WeatherCatV1.11B39,2013-06-16 13:58:00,
2013-06-16 10:03:00,69.9,49.3,29.72,NW,313,7.0,7.0,48,0.00,,,0.00,WeatherCatV1.11B39,2013-06-16 14:03:00,
2013-06-16 10:08:00,70.1,49.5,29.72,NNW,328,6.0,7.0,48,0.00,,,0.00,WeatherCatV1.11B39,2013-06-16 14:08:00,
2013-06-16 10:13:00,70.4,49.8,29.72,West,261,4.0,8.0,48,0.00,,,0.00,WeatherCatV1.11B39,2013-06-16 14:13:00,
2013-06-16 10:18:00,70.4,50.9,29.72,West,268,4.0,7.0,50,0.00,,,0.00,WeatherCatV1.11B39,2013-06-16 14:18:00,
2013-06-16 10:23:00,70.2,49.6,29.71,WNW,282,3.0,7.0,48,0.00,,,0.00,WeatherCatV1.11B39,2013-06-16 14:23:00,
2013-06-16 10:28:00,70.7,50.6,29.71,WSW,246,4.0,7.0,49,0.00,,,0.00,WeatherCatV1.11B39,2013-06-16 14:28:00,
2013-06-16 10:33:00,71.2,49.3,29.71,WSW,250,2.0,7.0,46,0.00,,,0.00,WeatherCatV1.11B39,2013-06-16 14:33:00,
2013-06-16 10:38:00,71.6,49.7,29.71,WSW,243,4.0,7.0,46,0.00,,,0.00,WeatherCatV1.11B39,2013-06-16 14:38:00,
2013-06-16 10:43:00,71.4,50.1,29.70,West,262,6.0,11.0,47,0.00,,,0.00,WeatherCatV1.11B39,2013-06-16 14:43:00,
2013-06-16 10:48:00,71.3,50.6,29.70,WSW,248,3.0,7.0,48,0.00,,,0.00,WeatherCatV1.11B39,2013-06-16 14:48:00,
2013-06-16 10:53:00,71.3,50.6,29.70,WSW,256,8.0,8.0,48,0.00,,,0.00,WeatherCatV1.11B39,2013-06-16 14:53:00,
2013-06-16 10:58:00,71.3,49.4,29.70,West,272,8.0,12.0,46,0.00,,,0.00,WeatherCatV1.11B39,2013-06-16 14:58:00,
2013-06-16 11:03:00,70.9,49.1,29.70,WSW,251,8.0,11.0,46,0.00,,,0.00,WeatherCatV1.11B39,2013-06-16 15:03:00,
2013-06-16 11:08:00,70.7,50.0,29.70,West,264,4.0,10.0,48,0.00,,,0.00,WeatherCatV1.11B39,2013-06-16 15:08:00,
2013-06-16 11:13:00,70.8,51.2,29.69,WNW,303,4.0,9.0,50,0.00,,,0.00,WeatherCatV1.11B39,2013-06-16 15:13:00,
2013-06-16 11:18:00,70.6,50.5,29.70,WSW,255,5.0,6.0,49,0.00,,,0.00,WeatherCatV1.11B39,2013-06-16 15:18:00,
2013-06-16 11:23:00,70.7,51.7,29.69,WSW,246,5.0,8.0,51,0.00,,,0.00,WeatherCatV1.11B39,2013-06-16 15:23:00,
2013-06-16 11:28:00,70.8,52.3,29.69,WSW,255,6.0,8.0,52,0.00,,,0.00,WeatherCatV1.11B39,2013-06-16 15:28:00,
2013-06-16 11:33:00,70.6,50.5,29.69,WSW,254,4.0,8.0,49,0.00,,,0.00,WeatherCatV1.11B39,2013-06-16 15:33:00,
2013-06-16 11:38:00,70.7,51.7,29.69,WSW,249,8.0,8.0,51,0.00,,,0.00,WeatherCatV1.11B39,2013-06-16 15:38:00,
2013-06-16 11:43:00,70.7,51.7,29.69,WSW,245,1.0,6.0,51,0.00,,,0.00,WeatherCatV1.11B39,2013-06-16 15:43:00,
2013-06-16 11:48:00,70.9,52.4,29.69,WSW,254,4.0,5.0,52,0.00,,,0.00,WeatherCatV1.11B39,2013-06-16 15:48:00,
2013-06-16 11:53:00,70.9,53.4,29.69,WSW,258,5.0,7.0,54,0.00,,,0.00,WeatherCatV1.11B39,2013-06-16 15:53:00,
2013-06-16 11:58:00,70.9,50.8,29.68,WSW,237,3.0,6.0,49,0.00,,,0.00,WeatherCatV1.11B39,2013-06-16 15:58:00,
2013-06-16 12:03:00,70.9,50.8,29.68,WSW,240,2.0,4.0,49,0.00,,,0.00,WeatherCatV1.11B39,2013-06-16 16:03:00,
2013-06-16 12:08:00,70.9,51.9,29.68,West,260,2.0,6.0,51,0.00,,,0.00,WeatherCatV1.11B39,2013-06-16 16:08:00,
2013-06-16 12:13:00,70.8,51.8,29.68,WSW,250,0.0,1.0,51,0.00,,,0.00,WeatherCatV1.11B39,2013-06-16 16:13:00,
2013-06-16 12:18:00,70.7,51.1,29.67,WSW,242,2.0,6.0,50,0.00,,,0.00,WeatherCatV1.11B39,2013-06-16 16:18:00,
2013-06-16 12:23:00,70.6,52.1,29.67,WSW,242,0.0,0.0,52,0.00,,,0.00,WeatherCatV1.11B39,2013-06-16 16:23:00,
2013-06-16 12:28:00,70.6,51.6,29.67,WSW,241,0.0,0.0,51,0.00,,,0.00,WeatherCatV1.11B39,2013-06-16 16:28:00,
2013-06-16 12:33:00,70.6,51.6,29.67,WSW,242,1.0,4.0,51,0.00,,,0.00,WeatherCatV1.11B39,2013-06-16 16:33:00,
2013-06-16 12:38:00,70.8,53.3,29.67,WSW,241,0.0,2.0,54,0.00,,,0.00,WeatherCatV1.11B39,2013-06-16 16:38:00,
2013-06-16 12:43:00,70.7,52.7,29.67,WSW,241,0.0,0.0,53,0.00,,,0.00,WeatherCatV1.11B39,2013-06-16 16:43:00,
2013-06-16 12:48:00,70.9,53.9,29.66,WSW,241,0.0,1.0,55,0.00,,,0.00,WeatherCatV1.11B39,2013-06-16 16:48:00,
2013-06-16 12:53:00,71.2,54.7,29.66,WSW,242,0.0,0.0,56,0.00,,,0.00,WeatherCatV1.11B39,2013-06-16 16:53:00,
2013-06-16 12:58:00,71.4,54.9,29.66,WSW,241,0.0,0.0,56,0.00,,,0.00,WeatherCatV1.11B39,2013-06-16 16:58:00,
2013-06-16 13:03:00,71.4,54.4,29.65,SE,146,0.0,0.0,55,0.00,,,0.00,WeatherCatV1.11B39,2013-06-16 17:03:00,
2013-06-16 13:08:00,71.4,54.4,29.66,WSW,243,2.0,5.0,55,0.00,,,0.00,WeatherCatV1.11B39,2013-06-16 17:08:00,
2013-06-16 13:13:00,71.4,54.9,29.66,SW,225,1.0,1.0,56,0.00,,,0.00,WeatherCatV1.11B39,2013-06-16 17:13:00,
2013-06-16 13:18:00,71.4,53.9,29.66,WSW,239,0.0,5.0,54,0.00,,,0.00,WeatherCatV1.11B39,2013-06-16 17:18:00,
2013-06-16 13:23:00,71.4,54.4,29.65,SSW,198,0.0,1.0,55,0.00,,,0.00,WeatherCatV1.11B39,2013-06-16 17:23:00,
2013-06-16 13:28:00,71.6,55.1,29.65,WSW,250,0.0,4.0,56,0.00,,,0.00,WeatherCatV1.11B39,2013-06-16 17:28:00,
2013-06-16 13:33:00,71.8,55.7,29.65,SSE,161,2.0,4.0,57,0.00,,,0.00,WeatherCatV1.11B39,2013-06-16 17:33:00,
2013-06-16 13:38:00,72.1,56.0,29.65,WSW,249,4.0,6.0,57,0.00,,,0.00,WeatherCatV1.11B39,2013-06-16 17:38:00,
2013-06-16 13:43:00,72.1,55.5,29.65,WSW,257,4.0,5.0,56,0.00,,,0.00,WeatherCatV1.11B39,2013-06-16 17:43:00,
2013-06-16 13:48:00,71.9,55.8,29.64,SW,227,2.0,5.0,57,0.00,,,0.00,WeatherCatV1.11B39,2013-06-16 17:48:00,
2013-06-16 13:53:00,71.9,55.3,29.64,WSW,252,4.0,9.0,56,0.00,,,0.00,WeatherCatV1.11B39,2013-06-16 17:53:00,
2013-06-16 13:58:00,71.9,55.3,29.64,SW,217,2.0,4.0,56,0.00,,,0.00,WeatherCatV1.11B39,2013-06-16 17:58:00,
2013-06-16 14:03:00,71.8,54.7,29.64,WSW,239,2.0,5.0,55,0.00,,,0.00,WeatherCatV1.11B39,2013-06-16 18:03:00,
2013-06-16 14:08:00,71.7,55.6,29.63,SW,234,2.0,4.0,57,0.00,,,0.00,WeatherCatV1.11B39,2013-06-16 18:08:00,
2013-06-16 14:13:00,72.0,54.9,29.63,WSW,256,2.0,8.0,55,0.00,,,0.00,WeatherCatV1.11B39,2013-06-16 18:13:00,
2013-06-16 14:18:00,72.3,56.2,29.63,South,174,0.0,3.0,57,0.00,,,0.00,WeatherCatV1.11B39,2013-06-16 18:18:00,
2013-06-16 14:23:00,72.8,56.7,29.62,South,184,0.0,3.0,57,0.00,,,0.00,WeatherCatV1.11B39,2013-06-16 18:23:00,
2013-06-16 14:28:00,73.1,56.9,29.61,West,268,0.0,0.0,57,0.00,,,0.00,WeatherCatV1.11B39,2013-06-16 18:28:00,
2013-06-16 14:33:00,73.3,57.1,29.62,SSE,160,0.0,0.0,57,0.00,,,0.00,WeatherCatV1.11B39,2013-06-16 18:33:00,
2013-06-16 14:38:00,73.5,57.3,29.60,South,174,0.0,3.0,57,0.00,,,0.00,WeatherCatV1.11B39,2013-06-16 18:38:00,
2013-06-16 14:43:00,74.0,57.8,29.60,South,186,0.0,0.0,57,0.00,,,0.00,WeatherCatV1.11B39,2013-06-16 18:43:00,
2013-06-16 14:48:00,73.8,57.6,29.60,SW,228,0.0,5.0,57,0.00,,,0.00,WeatherCatV1.11B39,2013-06-16 18:48:00,
2013-06-16 14:53:00,73.8,57.6,29.60,West,260,5.0,8.0,57,0.00,,,0.00,WeatherCatV1.11B39,2013-06-16 18:53:00,
2013-06-16 14:58:00,73.8,56.1,29.59,West,265,9.0,9.0,54,0.00,,,0.00,WeatherCatV1.11B39,2013-06-16 18:58:00,
2013-06-16 15:03:00,73.8,55.1,29.60,WSW,248,6.0,9.0,52,0.00,,,0.00,WeatherCatV1.11B39,2013-06-16 19:03:00,
2013-06-16 15:08:00,73.9,54.1,29.59,West,261,5.0,11.0,50,0.00,,,0.00,WeatherCatV1.11B39,2013-06-16 19:08:00,
2013-06-16 15:13:00,73.7,54.4,29.59,WSW,237,3.0,8.0,51,0.00,,,0.00,WeatherCatV1.11B39,2013-06-16 19:13:00,
2013-06-16 15:18:00,73.5,54.2,29.59,SW,218,0.0,6.0,51,0.00,,,0.00,WeatherCatV1.11B39,2013-06-16 19:18:00,
2013-06-16 15:23:00,73.1,53.9,29.58,WSW,251,2.0,6.0,51,0.00,,,0.00,WeatherCatV1.11B39,2013-06-16 19:23:00,
2013-06-16 15:28:00,73.0,54.8,29.58,WSW,248,8.0,8.0,53,0.00,,,0.00,WeatherCatV1.11B39,2013-06-16 19:28:00,
2013-06-16 15:33:00,72.8,53.6,29.59,WSW,251,2.0,8.0,51,0.00,,,0.00,WeatherCatV1.11B39,2013-06-16 19:33:00,
2013-06-16 15:38:00,72.6,55.0,29.59,SW,235,7.0,8.0,54,0.00,,,0.00,WeatherCatV1.11B39,2013-06-16 19:38:00,
2013-06-16 15:43:00,72.6,54.5,29.58,WSW,252,0.0,5.0,53,0.00,,,0.00,WeatherCatV1.11B39,2013-06-16 19:43:00,
2013-06-16 15:48:00,72.5,53.9,29.58,WSW,250,7.0,7.0,52,0.00,,,0.00,WeatherCatV1.11B39,2013-06-16 19:48:00,
2013-06-16 15:53:00,72.3,53.1,29.58,WSW,246,2.0,7.0,51,0.00,,,0.00,WeatherCatV1.11B39,2013-06-16 19:53:00,
2013-06-16 15:58:00,72.3,53.1,29.57,WSW,256,0.0,5.0,51,0.00,,,0.00,WeatherCatV1.11B39,2013-06-16 19:58:00,
2013-06-16 16:03:00,72.2,53.6,29.58,WSW,256,2.0,8.0,52,0.00,,,0.00,WeatherCatV1.11B39,2013-06-16 20:03:00,
2013-06-16 16:08:00,72.1,53.5,29.57,SSE,152,0.0,4.0,52,0.00,,,0.00,WeatherCatV1.11B39,2013-06-16 20:08:00,
2013-06-16 16:13:00,71.9,53.3,29.57,West,266,5.0,8.0,52,0.00,,,0.00,WeatherCatV1.11B39,2013-06-16 20:13:00,
2013-06-16 16:18:00,71.8,53.2,29.57,WSW,241,0.0,0.0,52,0.00,,,0.00,WeatherCatV1.11B39,2013-06-16 20:18:00,
2013-06-16 16:23:00,71.8,54.2,29.56,South,183,0.0,0.0,54,0.00,,,0.00,WeatherCatV1.11B39,2013-06-16 20:23:00,
2013-06-16 16:28:00,71.8,54.7,29.56,SW,217,0.0,0.0,55,0.00,,,0.00,WeatherCatV1.11B39,2013-06-16 20:28:00,
2013-06-16 16:33:00,71.9,54.3,29.56,South,175,0.0,2.0,54,0.00,,,0.00,WeatherCatV1.11B39,2013-06-16 20:33:00,
2013-06-16 16:38:00,72.0,54.4,29.56,South,176,0.0,7.0,54,0.00,,,0.00,WeatherCatV1.11B39,2013-06-16 20:38:00,
2013-06-16 16:43:00,71.7,55.2,29.56,SSW,208,3.0,3.0,56,0.00,,,0.00,WeatherCatV1.11B39,2013-06-16 20:43:00,
2013-06-16 16:48:00,71.7,55.2,29.56,WSW,257,0.0,4.0,56,0.00,,,0.00,WeatherCatV1.11B39,2013-06-16 20:48:00,
2013-06-16 16:53:00,71.4,54.9,29.56,WSW,257,0.0,0.0,56,0.00,,,0.00,WeatherCatV1.11B39,2013-06-16 20:53:00,
2013-06-16 16:58:00,71.4,54.9,29.57,WSW,244,0.0,0.0,56,0.00,,,0.00,WeatherCatV1.11B39,2013-06-16 20:58:00,
2013-06-16 17:03:00,71.1,54.1,29.56,WSW,246,3.0,6.0,55,0.00,,,0.00,WeatherCatV1.11B39,2013-06-16 21:03:00,
2013-06-16 17:08:00,71.1,55.1,29.56,WSW,246,0.0,0.0,57,0.00,,,0.00,WeatherCatV1.11B39,2013-06-16 21:08:00,
2013-06-16 17:13:00,71.1,54.6,29.56,SSE,151,0.0,0.0,56,0.00,,,0.00,WeatherCatV1.11B39,2013-06-16 21:13:00,
2013-06-16 17:18:00,71.1,54.6,29.55,SSW,213,0.0,0.0,56,0.00,,,0.00,WeatherCatV1.11B39,2013-06-16 21:18:00,
2013-06-16 17:23:00,71.1,54.6,29.55,WSW,257,0.0,0.0,56,0.00,,,0.00,WeatherCatV1.11B39,2013-06-16 21:23:00,
2013-06-16 17:28:00,71.1,54.6,29.55,WSW,257,0.0,0.0,56,0.00,,,0.00,WeatherCatV1.11B39,2013-06-16 21:28:00,
2013-06-16 17:33:00,71.1,54.6,29.55,SW,226,1.0,2.0,56,0.00,,,0.00,WeatherCatV1.11B39,2013-06-16 21:33:00,
2013-06-16 17:38:00,71.3,54.8,29.54,WSW,237,0.0,2.0,56,0.00,,,0.00,WeatherCatV1.11B39,2013-06-16 21:38:00,
2013-06-16 17:43:00,71.4,54.9,29.54,WSW,237,0.0,2.0,56,0.00,,,0.00,WeatherCatV1.11B39,2013-06-16 21:43:00,
2013-06-16 17:49:00,71.6,55.1,29.54,WSW,238,0.0,0.0,56,0.00,,,0.00,WeatherCatV1.11B39,2013-06-16 21:49:00,
2013-06-16 17:54:00,71.8,55.7,29.54,SW,232,0.0,0.0,57,0.00,,,0.00,WeatherCatV1.11B39,2013-06-16 21:54:00,
2013-06-16 17:59:00,71.8,55.2,29.54,South,174,1.0,1.0,56,0.00,,,0.00,WeatherCatV1.11B39,2013-06-16 21:59:00,
2013-06-16 18:04:00,71.7,55.6,29.53,WSW,244,0.0,1.0,57,0.00,,,0.00,WeatherCatV1.11B39,2013-06-16 22:04:00,
2013-06-16 18:09:00,71.8,54.7,29.54,WSW,237,1.0,7.0,55,0.00,,,0.00,WeatherCatV1.11B39,2013-06-16 22:09:00,
2013-06-16 18:14:00,71.6,56.0,29.54,WSW,248,5.0,5.0,58,0.00,,,0.00,WeatherCatV1.11B39,2013-06-16 22:14:00,
2013-06-16 18:17:00,71.4,55.8,29.54,WSW,240,3.0,5.0,58,0.00,,,0.00,WeatherCatV1.11B39,2013-06-16 22:17:00,
2013-06-16 18:22:00,71.4,54.9,29.54,WSW,244,2.0,4.0,56,0.00,,,0.00,WeatherCatV1.11B39,2013-06-16 22:22:00,
2013-06-16 18:27:00,71.4,54.9,29.54,SW,233,0.0,5.0,56,0.00,,,0.00,WeatherCatV1.11B39,2013-06-16 22:27:00,
2013-06-16 18:32:00,71.4,55.4,29.53,WSW,253,0.0,0.0,57,0.00,,,0.00,WeatherCatV1.11B39,2013-06-16 22:32:00,
2013-06-16 18:37:00,71.2,55.7,29.53,WSW,253,0.0,0.0,58,0.00,,,0.00,WeatherCatV1.11B39,2013-06-16 22:37:00,
2013-06-16 18:42:00,71.3,55.7,29.53,WSW,253,0.0,0.0,58,0.00,,,0.00,WeatherCatV1.11B39,2013-06-16 22:42:00,
2013-06-16 18:47:00,71.3,55.7,29.53,WSW,252,0.0,0.0,58,0.00,,,0.00,WeatherCatV1.11B39,2013-06-16 22:47:00,
2013-06-16 18:52:00,71.4,55.8,29.53,WSW,253,0.0,0.0,58,0.00,,,0.00,WeatherCatV1.11B39,2013-06-16 22:52:00,
2013-06-16 18:57:00,71.4,55.8,29.52,WSW,252,0.0,0.0,58,0.00,,,0.00,WeatherCatV1.11B39,2013-06-16 22:57:00,
2013-06-16 19:02:00,71.2,56.1,29.53,WSW,252,0.0,0.0,59,0.00,,,0.00,WeatherCatV1.11B39,2013-06-16 23:02:00,
2013-06-16 19:07:00,71.1,56.0,29.52,WSW,250,0.0,0.0,59,0.00,,,0.00,WeatherCatV1.11B39,2013-06-16 23:07:00,
2013-06-16 19:12:00,71.1,56.0,29.53,WSW,241,0.0,4.0,59,0.00,,,0.00,WeatherCatV1.11B39,2013-06-16 23:12:00,
2013-06-16 19:17:00,71.1,56.0,29.52,WSW,241,0.0,0.0,59,0.00,,,0.00,WeatherCatV1.11B39,2013-06-16 23:17:00,
2013-06-16 19:22:00,71.1,56.5,29.53,WSW,241,0.0,0.0,60,0.00,,,0.00,WeatherCatV1.11B39,2013-06-16 23:22:00,
2013-06-16 19:27:00,71.1,57.0,29.53,WSW,241,0.0,0.0,61,0.00,,,0.00,WeatherCatV1.11B39,2013-06-16 23:27:00,
2013-06-16 19:32:00,70.9,56.8,29.52,WSW,257,0.0,1.0,61,0.00,,,0.00,WeatherCatV1.11B39,2013-06-16 23:32:00,
2013-06-16 19:37:00,70.9,57.2,29.53,WSW,254,0.0,0.0,62,0.00,,,0.00,WeatherCatV1.11B39,2013-06-16 23:37:00,
2013-06-16 19:42:00,71.1,57.4,29.53,WSW,253,0.0,0.0,62,0.00,,,0.00,WeatherCatV1.11B39,2013-06-16 23:42:00,
2013-06-16 19:47:00,71.1,57.0,29.53,WSW,247,3.0,5.0,61,0.00,,,0.00,WeatherCatV1.11B39,2013-06-16 23:47:00,
2013-06-16 19:52:00,71.2,57.0,29.54,WSW,239,0.0,0.0,61,0.00,,,0.00,WeatherCatV1.11B39,2013-06-16 23:52:00,
2013-06-16 19:57:00,71.2,57.5,29.54,WSW,239,0.0,0.0,62,0.00,,,0.00,WeatherCatV1.11B39,2013-06-16 23:57:00,
2013-06-16 20:02:00,71.2,57.5,29.54,SW,235,2.0,4.0,62,0.00,,,0.00,WeatherCatV1.11B39,2013-06-17 00:02:00,
2013-06-16 20:07:00,71.2,57.5,29.54,SW,235,0.0,2.0,62,0.00,,,0.00,WeatherCatV1.11B39,2013-06-17 00:07:00,
2013-06-16 20:12:00,71.2,57.5,29.54,SW,235,0.0,0.0,62,0.00,,,0.00,WeatherCatV1.11B39,2013-06-17 00:12:00,
2013-06-16 20:17:00,71.2,57.5,29.54,SW,235,0.0,0.0,62,0.00,,,0.00,WeatherCatV1.11B39,2013-06-17 00:17:00,
2013-06-16 20:22:00,71.2,57.5,29.54,SW,236,0.0,0.0,62,0.00,,,0.00,WeatherCatV1.11B39,2013-06-17 00:22:00,
2013-06-16 20:27:00,71.3,57.6,29.54,SW,236,0.0,0.0,62,0.00,,,0.00,WeatherCatV1.11B39,2013-06-17 00:27:00,
2013-06-16 20:32:00,71.1,57.9,29.54,SW,235,0.0,0.0,63,0.00,,,0.00,WeatherCatV1.11B39,2013-06-17 00:32:00,
2013-06-16 20:37:00,70.9,58.1,29.54,WSW,253,0.0,0.0,64,0.00,,,0.00,WeatherCatV1.11B39,2013-06-17 00:37:00,
2013-06-16 20:42:00,71.1,58.3,29.54,WSW,249,3.0,8.0,64,0.00,,,0.00,WeatherCatV1.11B39,2013-06-17 00:42:00,
2013-06-16 20:47:00,71.2,58.4,29.55,SW,226,0.0,0.0,64,0.00,,,0.00,WeatherCatV1.11B39,2013-06-17 00:47:00,
2013-06-16 20:52:00,71.4,58.6,29.54,WSW,255,5.0,5.0,64,0.00,,,0.00,WeatherCatV1.11B39,2013-06-17 00:52:00,
2013-06-16 20:57:00,71.4,58.6,29.55,WSW,247,1.0,7.0,64,0.00,,,0.00,WeatherCatV1.11B39,2013-06-17 00:57:00,
2013-06-16 21:02:00,71.4,59.0,29.55,WSW,254,5.0,6.0,65,0.00,,,0.00,WeatherCatV1.11B39,2013-06-17 01:02:00,
2013-06-16 21:07:00,71.6,59.6,29.55,WSW,245,5.0,7.0,66,0.00,,,0.00,WeatherCatV1.11B39,2013-06-17 01:07:00,
2013-06-16 21:12:00,71.4,59.9,29.55,WSW,252,6.0,6.0,67,0.00,,,0.00,WeatherCatV1.11B39,2013-06-17 01:12:00,
2013-06-16 21:17:00,71.4,59.9,29.56,WSW,254,4.0,6.0,67,0.00,,,0.00,WeatherCatV1.11B39,2013-06-17 01:17:00,
2013-06-16 21:22:00,71.6,60.0,29.56,WSW,254,5.0,8.0,67,0.00,,,0.00,WeatherCatV1.11B39,2013-06-17 01:22:00,
2013-06-16 21:27:00,71.6,60.0,29.56,WSW,252,5.0,8.0,67,0.00,,,0.00,WeatherCatV1.11B39,2013-06-17 01:27:00,
2013-06-16 21:32:00,71.6,60.0,29.56,West,270,2.0,5.0,67,0.00,,,0.00,WeatherCatV1.11B39,2013-06-17 01:32:00,
2013-06-16 21:37:00,71.4,59.9,29.56,West,263,0.0,1.0,67,0.00,,,0.00,WeatherCatV1.11B39,2013-06-17 01:37:00,
2013-06-16 21:42:00,71.3,59.3,29.57,WSW,256,5.0,8.0,66,0.00,,,0.00,WeatherCatV1.11B39,2013-06-17 01:42:00,
2013-06-16 21:47:00,71.2,59.7,29.57,NW,310,6.0,7.0,67,0.00,,,0.00,WeatherCatV1.11B39,2013-06-17 01:47:00,
2013-06-16 21:52:00,71.2,59.7,29.57,West,261,5.0,11.0,67,0.00,,,0.00,WeatherCatV1.11B39,2013-06-17 01:52:00,
2013-06-16 21:57:00,71.1,59.6,29.57,WNW,300,5.0,7.0,67,0.00,,,0.00,WeatherCatV1.11B39,2013-06-17 01:57:00,
2013-06-16 22:02:00,71.1,59.6,29.57,West,275,7.0,9.0,67,0.00,,,0.00,WeatherCatV1.11B39,2013-06-17 02:02:00,
2013-06-16 22:07:00,71.1,59.6,29.57,WNW,296,4.0,10.0,67,0.00,,,0.00,WeatherCatV1.11B39,2013-06-17 02:07:00,
2013-06-16 22:12:00,71.0,59.5,29.57,NNW,331,6.0,13.0,67,0.00,,,0.00,WeatherCatV1.11B39,2013-06-17 02:12:00,
2013-06-16 22:17:00,70.7,58.8,29.58,WNW,284,4.0,14.0,66,0.00,,,0.00,WeatherCatV1.11B39,2013-06-17 02:17:00,
2013-06-16 22:22:00,70.7,58.8,29.58,WSW,256,10.0,10.0,66,0.00,,,0.00,WeatherCatV1.11B39,2013-06-17 02:22:00,
2013-06-16 22:27:00,70.4,58.5,29.58,NNW,327,8.0,11.0,66,0.00,,,0.00,WeatherCatV1.11B39,2013-06-17 02:27:00,
2013-06-16 22:32:00,70.2,58.7,29.58,NNW,347,3.0,11.0,67,0.00,,,0.00,WeatherCatV1.11B39,2013-06-17 02:32:00,
2013-06-16 22:37:00,70.1,58.6,29.58,NNW,342,3.0,9.0,67,0.00,,,0.00,WeatherCatV1.11B39,2013-06-17 02:37:00,
2013-06-16 22:42:00,69.9,58.4,29.58,NNW,338,6.0,7.0,67,0.00,,,0.00,WeatherCatV1.11B39,2013-06-17 02:42:00,
2013-06-16 22:47:00,69.8,58.3,29.59,NW,308,7.0,10.0,67,0.00,,,0.00,WeatherCatV1.11B39,2013-06-17 02:47:00,
2013-06-16 22:52:00,69.8,58.3,29.58,NW,313,7.0,9.0,67,0.00,,,0.00,WeatherCatV1.11B39,2013-06-17 02:52:00,
2013-06-16 22:57:00,69.6,58.6,29.58,West,277,4.0,11.0,68,0.00,,,0.00,WeatherCatV1.11B39,2013-06-17 02:57:00,
2013-06-16 23:02:00,69.5,58.0,29.59,NW,307,5.0,9.0,67,0.00,,,0.00,WeatherCatV1.11B39,2013-06-17 03:02:00,
2013-06-16 23:07:00,69.4,58.4,29.58,NW,309,6.0,13.0,68,0.00,,,0.00,WeatherCatV1.11B39,2013-06-17 03:07:00,
2013-06-16 23:12:00,69.2,57.8,29.59,West,280,4.0,8.0,67,0.00,,,0.00,WeatherCatV1.11B39,2013-06-17 03:12:00,
2013-06-16 23:17:00,69.2,58.2,29.59,North,353,4.0,7.0,68,0.00,,,0.00,WeatherCatV1.11B39,2013-06-17 03:17:00,
2013-06-16 23:22:00,69.1,58.1,29.60,NNW,333,0.0,5.0,68,0.00,,,0.00,WeatherCatV1.11B39,2013-06-17 03:22:00,
2013-06-16 23:27:00,68.8,58.2,29.59,WNW,295,4.0,6.0,69,0.00,,,0.00,WeatherCatV1.11B39,2013-06-17 03:27:00,
2013-06-16 23:30:00,68.8,58.2,29.59,NW,322,4.0,9.0,69,0.00,,,0.00,WeatherCatV1.11B39,2013-06-17 03:30:00,
2013-06-16 23:35:00,68.6,58.0,29.60,NW,306,0.0,5.0,69,0.00,,,0.00,WeatherCatV1.11B39,2013-06-17 03:35:00,
2013-06-16 23:40:00,68.6,58.0,29.60,NW,310,4.0,7.0,69,0.00,,,0.00,WeatherCatV1.11B39,2013-06-17 03:40:00,
2013-06-16 23:45:00,68.4,57.8,29.60,WNW,303,6.0,6.0,69,0.00,,,0.00,WeatherCatV1.11B39,2013-06-17 03:45:00,
2013-06-16 23:50:00,68.3,58.1,29.60,NNW,332,3.0,8.0,70,0.00,,,0.00,WeatherCatV1.11B39,2013-06-17 03:50:00,
2013-06-16 23:55:00,68.3,58.1,29.59,NNW,338,6.0,7.0,70,0.00,,,0.00,WeatherCatV1.11B39,2013-06-17 03:55:00,